Time,TemperatureF,DewpointF,PressureIn,WindDirection,WindDirectionDegrees,WindSpeedMPH,WindSpeedGustMPH,Humidity,HourlyPrecipIn,Conditions,Clouds,dailyrainin,SoftwareType,DateUTC
2013-02-02 00:00:00,22.8,11.0,30.40,NW,310,2.1,3.5,60,0.00,,,0.00,WeatherDisplay:10.37,2013-02-02 05:00:00,
2013-02-02 00:01:00,22.8,11.0,30.40,NW,309,0.7,3.5,60,0.00,,,0.00,WeatherDisplay:10.37,2013-02-02 05:01:00,
2013-02-02 00:06:00,22.8,10.6,30.40,NW,309,0.0,0.0,59,0.00,,,0.00,WeatherDisplay:10.37,2013-02-02 05:06:00,
2013-02-02 00:11:00,22.8,10.2,30.40,WNW,298,0.2,2.3,58,0.00,,,0.00,WeatherDisplay:10.37,2013-02-02 05:11:00,
2013-02-02 00:16:00,22.7,11.3,30.39,WNW,298,0.0,0.0,61,0.00,,,0.00,WeatherDisplay:10.37,2013-02-02 05:16:00,
2013-02-02 00:21:00,22.4,11.7,30.40,WNW,298,0.0,0.0,63,0.00,,,0.00,WeatherDisplay:10.37,2013-02-02 05:21:00,
2013-02-02 00:26:00,22.1,11.8,30.40,WNW,298,0.0,0.0,64,0.00,,,0.00,WeatherDisplay:10.37,2013-02-02 05:26:00,
2013-02-02 00:31:00,21.8,12.5,30.40,WNW,298,0.0,0.0,67,0.00,,,0.00,WeatherDisplay:10.37,2013-02-02 05:31:00,
2013-02-02 00:36:00,21.5,12.6,30.41,WNW,298,0.0,0.0,68,0.00,,,0.00,WeatherDisplay:10.37,2013-02-02 05:36:00,
2013-02-02 00:41:00,21.3,12.4,30.40,WNW,298,0.0,0.0,68,0.00,,,0.00,WeatherDisplay:10.37,2013-02-02 05:41:00,
2013-02-02 00:46:00,21.1,12.5,30.40,WNW,298,0.0,0.0,69,0.00,,,0.00,WeatherDisplay:10.37,2013-02-02 05:46:00,
2013-02-02 00:51:00,20.9,12.0,30.39,WNW,298,0.0,0.0,68,0.00,,,0.00,WeatherDisplay:10.37,2013-02-02 05:51:00,
2013-02-02 00:56:00,20.7,11.8,30.39,WNW,298,0.0,0.0,68,0.00,,,0.00,WeatherDisplay:10.37,2013-02-02 05:56:00,
2013-02-02 01:01:00,20.7,11.8,30.39,WNW,299,0.0,0.0,68,0.00,,,0.00,WeatherDisplay:10.37,2013-02-02 06:01:00,
2013-02-02 01:06:00,20.5,12.6,30.38,WNW,298,0.0,0.0,71,0.00,,,0.00,WeatherDisplay:10.37,2013-02-02 06:06:00,
2013-02-02 01:11:00,20.4,12.8,30.38,WNW,298,0.0,0.0,72,0.00,,,0.00,WeatherDisplay:10.37,2013-02-02 06:11:00,
2013-02-02 01:16:00,20.2,12.6,30.39,WNW,298,0.0,0.0,72,0.00,,,0.00,WeatherDisplay:10.37,2013-02-02 06:16:00,
2013-02-02 01:21:00,20.3,12.7,30.38,WNW,298,0.0,0.0,72,0.00,,,0.00,WeatherDisplay:10.37,2013-02-02 06:21:00,
2013-02-02 01:26:00,20.3,13.0,30.38,WNW,298,0.0,0.0,73,0.00,,,0.00,WeatherDisplay:10.37,2013-02-02 06:26:00,
2013-02-02 01:31:00,20.3,12.7,30.39,WNW,298,0.0,0.0,72,0.00,,,0.00,WeatherDisplay:10.37,2013-02-02 06:31:00,
2013-02-02 01:36:00,20.4,13.1,30.39,WNW,298,0.0,0.0,73,0.00,,,0.00,WeatherDisplay:10.37,2013-02-02 06:36:00,
2013-02-02 01:41:00,20.4,13.1,30.40,WNW,298,0.0,0.0,73,0.00,,,0.00,WeatherDisplay:10.37,2013-02-02 06:41:00,
2013-02-02 01:46:00,20.5,12.9,30.39,WNW,298,0.0,0.0,72,0.00,,,0.00,WeatherDisplay:10.37,2013-02-02 06:46:00,
2013-02-02 01:51:00,20.6,13.0,30.40,WNW,298,0.4,1.1,72,0.00,,,0.00,WeatherDisplay:10.37,2013-02-02 06:51:00,
2013-02-02 01:56:00,20.7,13.1,30.40,WNW,298,0.0,0.0,72,0.00,,,0.00,WeatherDisplay:10.37,2013-02-02 06:56:00,
2013-02-02 02:01:00,20.7,13.4,30.40,WNW,298,0.0,0.0,73,0.00,,,0.00,WeatherDisplay:10.37,2013-02-02 07:01:00,
2013-02-02 02:06:00,20.7,13.1,30.39,WNW,298,0.0,0.0,72,0.00,,,0.00,WeatherDisplay:10.37,2013-02-02 07:06:00,
2013-02-02 02:11:00,20.7,12.8,30.39,WNW,298,0.0,0.0,71,0.00,,,0.00,WeatherDisplay:10.37,2013-02-02 07:11:00,
2013-02-02 02:16:00,20.7,12.8,30.40,WNW,298,0.0,0.0,71,0.00,,,0.00,WeatherDisplay:10.37,2013-02-02 07:16:00,
2013-02-02 02:21:00,20.7,12.8,30.39,WNW,298,0.0,0.0,71,0.00,,,0.00,WeatherDisplay:10.37,2013-02-02 07:21:00,
2013-02-02 02:26:00,20.8,12.9,30.38,WNW,298,0.0,0.0,71,0.00,,,0.00,WeatherDisplay:10.37,2013-02-02 07:26:00,
2013-02-02 02:31:00,20.8,13.2,30.39,WNW,298,0.0,0.0,72,0.00,,,0.00,WeatherDisplay:10.37,2013-02-02 07:31:00,
2013-02-02 02:36:00,20.8,12.9,30.39,WNW,298,0.0,0.0,71,0.00,,,0.00,WeatherDisplay:10.37,2013-02-02 07:36:00,
2013-02-02 02:41:00,20.9,13.0,30.38,WNW,298,0.0,0.0,71,0.00,,,0.00,WeatherDisplay:10.37,2013-02-02 07:41:00,
2013-02-02 02:46:00,20.9,13.3,30.38,WNW,298,0.0,0.0,72,0.00,,,0.00,WeatherDisplay:10.37,2013-02-02 07:46:00,
2013-02-02 02:51:00,21.0,13.4,30.38,WNW,298,0.0,0.0,72,0.00,,,0.00,WeatherDisplay:10.37,2013-02-02 07:51:00,
2013-02-02 02:56:00,21.0,13.4,30.37,WNW,298,0.0,0.0,72,0.00,,,0.00,WeatherDisplay:10.37,2013-02-02 07:56:00,
2013-02-02 03:01:00,21.0,13.7,30.38,WNW,298,0.0,0.0,73,0.00,,,0.00,WeatherDisplay:10.37,2013-02-02 08:01:00,
2013-02-02 03:06:00,21.1,13.8,30.38,WNW,298,0.0,0.0,73,0.00,,,0.00,WeatherDisplay:10.37,2013-02-02 08:06:00,
2013-02-02 03:11:00,21.1,13.8,30.39,WNW,298,0.0,0.0,73,0.00,,,0.00,WeatherDisplay:10.37,2013-02-02 08:11:00,
2013-02-02 03:16:00,21.2,13.9,30.38,WNW,298,0.0,0.0,73,0.00,,,0.00,WeatherDisplay:10.37,2013-02-02 08:16:00,
2013-02-02 03:21:00,21.3,13.7,30.38,WNW,298,0.0,0.0,72,0.00,,,0.00,WeatherDisplay:10.37,2013-02-02 08:21:00,
2013-02-02 03:26:00,21.3,13.4,30.38,WNW,297,0.0,1.1,71,0.00,,,0.00,WeatherDisplay:10.37,2013-02-02 08:26:00,
2013-02-02 03:31:00,21.3,13.4,30.38,WNW,297,0.0,0.0,71,0.00,,,0.00,WeatherDisplay:10.37,2013-02-02 08:31:00,
2013-02-02 03:36:00,21.3,13.4,30.38,WNW,298,0.0,0.0,71,0.00,,,0.00,WeatherDisplay:10.37,2013-02-02 08:36:00,
2013-02-02 03:41:00,21.3,13.4,30.38,WNW,297,0.0,0.0,71,0.00,,,0.00,WeatherDisplay:10.37,2013-02-02 08:41:00,
2013-02-02 03:46:00,21.3,13.0,30.38,WNW,297,0.0,0.0,70,0.00,,,0.00,WeatherDisplay:10.37,2013-02-02 08:46:00,
2013-02-02 03:51:00,21.3,13.4,30.38,WNW,298,0.0,0.0,71,0.00,,,0.00,WeatherDisplay:10.37,2013-02-02 08:51:00,
2013-02-02 03:56:00,21.3,13.4,30.38,WNW,297,0.0,0.0,71,0.00,,,0.00,WeatherDisplay:10.37,2013-02-02 08:56:00,
2013-02-02 04:01:00,21.2,13.6,30.38,WNW,298,0.0,0.0,72,0.00,,,0.00,WeatherDisplay:10.37,2013-02-02 09:01:00,
2013-02-02 04:06:00,21.1,13.5,30.38,WNW,298,0.0,0.0,72,0.00,,,0.00,WeatherDisplay:10.37,2013-02-02 09:06:00,
2013-02-02 04:11:00,21.0,13.4,30.38,WNW,298,0.0,0.0,72,0.00,,,0.00,WeatherDisplay:10.37,2013-02-02 09:11:00,
2013-02-02 04:16:00,21.0,14.0,30.37,WNW,298,0.0,0.0,74,0.00,,,0.00,WeatherDisplay:10.37,2013-02-02 09:16:00,
2013-02-02 04:21:00,20.9,13.6,30.37,WNW,298,0.0,0.0,73,0.00,,,0.00,WeatherDisplay:10.37,2013-02-02 09:21:00,
2013-02-02 04:26:00,20.9,13.9,30.37,WNW,297,0.0,0.0,74,0.00,,,0.00,WeatherDisplay:10.37,2013-02-02 09:26:00,
2013-02-02 04:31:00,20.9,13.9,30.37,WNW,297,0.0,0.0,74,0.00,,,0.00,WeatherDisplay:10.37,2013-02-02 09:31:00,
2013-02-02 04:36:00,20.8,13.8,30.37,WNW,297,0.0,0.0,74,0.00,,,0.00,WeatherDisplay:10.37,2013-02-02 09:36:00,
2013-02-02 04:41:00,20.8,13.8,30.37,WNW,298,0.0,0.0,74,0.00,,,0.00,WeatherDisplay:10.37,2013-02-02 09:41:00,
2013-02-02 04:46:00,20.8,13.8,30.37,WNW,298,0.0,0.0,74,0.00,,,0.00,WeatherDisplay:10.37,2013-02-02 09:46:00,
2013-02-02 04:51:00,20.8,13.8,30.37,WNW,298,0.0,1.1,74,0.00,,,0.00,WeatherDisplay:10.37,2013-02-02 09:51:00,
2013-02-02 04:56:00,20.8,13.8,30.37,WNW,297,0.0,0.0,74,0.00,,,0.00,WeatherDisplay:10.37,2013-02-02 09:56:00,
2013-02-02 05:01:00,20.9,13.9,30.37,WNW,298,0.0,0.0,74,0.00,,,0.00,WeatherDisplay:10.37,2013-02-02 10:01:00,
2013-02-02 05:06:00,20.9,13.9,30.37,WNW,297,0.0,0.0,74,0.00,,,0.00,WeatherDisplay:10.37,2013-02-02 10:06:00,
2013-02-02 05:11:00,20.9,14.2,30.37,WNW,297,0.0,0.0,75,0.00,,,0.00,WeatherDisplay:10.37,2013-02-02 10:11:00,
2013-02-02 05:16:00,20.9,14.2,30.38,WNW,298,0.0,0.0,75,0.00,,,0.00,WeatherDisplay:10.37,2013-02-02 10:16:00,
2013-02-02 05:21:00,20.9,14.2,30.38,WNW,298,0.0,0.0,75,0.00,,,0.00,WeatherDisplay:10.37,2013-02-02 10:21:00,
2013-02-02 05:26:00,20.8,13.8,30.38,WNW,298,0.0,0.0,74,0.00,,,0.00,WeatherDisplay:10.37,2013-02-02 10:26:00,
2013-02-02 05:31:00,20.8,13.8,30.38,WNW,298,0.0,0.0,74,0.00,,,0.00,WeatherDisplay:10.37,2013-02-02 10:31:00,
2013-02-02 05:36:00,20.8,14.1,30.38,WNW,298,0.0,0.0,75,0.00,,,0.00,WeatherDisplay:10.37,2013-02-02 10:36:00,
2013-02-02 05:41:00,20.8,14.1,30.38,WNW,297,0.0,0.0,75,0.00,,,0.00,WeatherDisplay:10.37,2013-02-02 10:41:00,
2013-02-02 05:46:00,20.8,14.1,30.39,WNW,298,0.0,0.0,75,0.00,,,0.00,WeatherDisplay:10.37,2013-02-02 10:46:00,
2013-02-02 05:51:00,20.8,13.8,30.39,WNW,297,0.0,0.0,74,0.00,,,0.00,WeatherDisplay:10.37,2013-02-02 10:51:00,
2013-02-02 05:56:00,20.8,14.1,30.39,WNW,298,0.0,0.0,75,0.00,,,0.00,WeatherDisplay:10.37,2013-02-02 10:56:00,
2013-02-02 06:01:00,20.8,14.4,30.39,WNW,298,0.0,0.0,76,0.00,,,0.00,WeatherDisplay:10.37,2013-02-02 11:01:00,
2013-02-02 06:07:00,20.7,14.6,30.39,WNW,298,0.0,0.0,77,0.00,,,0.00,WeatherDisplay:10.37,2013-02-02 11:07:00,
2013-02-02 06:11:00,20.7,14.6,30.40,WNW,297,0.0,0.0,77,0.00,,,0.00,WeatherDisplay:10.37,2013-02-02 11:11:00,
2013-02-02 06:17:00,20.6,14.8,30.39,WNW,298,0.0,0.0,78,0.00,,,0.00,WeatherDisplay:10.37,2013-02-02 11:17:00,
2013-02-02 06:22:00,20.5,15.0,30.40,WNW,297,0.0,0.0,79,0.00,,,0.00,WeatherDisplay:10.37,2013-02-02 11:22:00,
2013-02-02 06:27:00,20.3,14.8,30.40,WNW,297,0.0,0.0,79,0.00,,,0.00,WeatherDisplay:10.37,2013-02-02 11:27:00,
2013-02-02 06:32:00,20.2,15.0,30.40,WNW,297,0.0,0.0,80,0.00,,,0.00,WeatherDisplay:10.37,2013-02-02 11:32:00,
2013-02-02 06:37:00,19.9,14.7,30.40,WNW,298,0.0,0.0,80,0.00,,,0.00,WeatherDisplay:10.37,2013-02-02 11:37:00,
2013-02-02 06:42:00,19.7,14.5,30.40,WNW,298,0.0,0.0,80,0.00,,,0.00,WeatherDisplay:10.37,2013-02-02 11:42:00,
2013-02-02 06:47:00,19.7,14.8,30.40,WNW,298,0.0,0.0,81,0.00,,,0.00,WeatherDisplay:10.37,2013-02-02 11:47:00,
2013-02-02 06:52:00,19.7,14.8,30.41,WNW,297,0.0,0.0,81,0.00,,,0.00,WeatherDisplay:10.37,2013-02-02 11:52:00,
2013-02-02 06:57:00,19.5,14.9,30.41,WNW,298,0.0,0.0,82,0.00,,,0.00,WeatherDisplay:10.37,2013-02-02 11:57:00,
2013-02-02 07:02:00,19.3,14.4,30.41,WNW,297,0.0,0.0,81,0.00,CLR,,0.00,WeatherDisplay:10.37,2013-02-02 12:02:00,
2013-02-02 07:07:00,19.1,14.2,30.41,WNW,298,0.0,0.0,81,0.00,CLR,,0.00,WeatherDisplay:10.37,2013-02-02 12:07:00,
2013-02-02 07:12:00,19.1,14.5,30.41,WNW,298,0.0,0.0,82,0.00,CLR,,0.00,WeatherDisplay:10.37,2013-02-02 12:12:00,
2013-02-02 07:17:00,19.0,14.7,30.41,WNW,297,0.0,0.0,83,0.00,CLR,,0.00,WeatherDisplay:10.37,2013-02-02 12:17:00,
2013-02-02 07:22:00,18.9,14.9,30.41,WNW,298,0.0,0.0,84,0.00,CLR,,0.00,WeatherDisplay:10.37,2013-02-02 12:22:00,
2013-02-02 07:27:00,18.9,14.9,30.41,WNW,298,0.0,0.0,84,0.00,CLR,,0.00,WeatherDisplay:10.37,2013-02-02 12:27:00,
2013-02-02 07:32:00,18.8,14.8,30.41,WNW,297,0.0,0.0,84,0.00,CLR,,0.00,WeatherDisplay:10.37,2013-02-02 12:32:00,
2013-02-02 07:37:00,18.8,15.0,30.41,WNW,298,0.0,0.0,85,0.00,CLR,,0.00,WeatherDisplay:10.37,2013-02-02 12:37:00,
2013-02-02 07:42:00,18.8,15.0,30.41,WNW,298,0.0,0.0,85,0.00,CLR,,0.00,WeatherDisplay:10.37,2013-02-02 12:42:00,
2013-02-02 07:47:00,19.0,15.5,30.41,WNW,297,0.0,0.0,86,0.00,CLR,,0.00,WeatherDisplay:10.37,2013-02-02 12:47:00,
2013-02-02 07:52:00,19.2,15.7,30.41,WNW,298,0.0,0.0,86,0.00,CLR,,0.00,WeatherDisplay:10.37,2013-02-02 12:52:00,
2013-02-02 07:57:00,19.5,16.3,30.41,WNW,297,0.0,0.0,87,0.00,CLR,,0.00,WeatherDisplay:10.37,2013-02-02 12:57:00,
2013-02-02 08:02:00,19.7,16.5,30.41,WNW,298,0.0,0.0,87,0.00,CLR,,0.00,WeatherDisplay:10.37,2013-02-02 13:02:00,
2013-02-02 08:07:00,20.1,16.6,30.41,WNW,298,0.0,0.0,86,0.00,CLR,,0.00,WeatherDisplay:10.37,2013-02-02 13:07:00,
2013-02-02 08:12:00,20.5,16.7,30.41,WNW,297,0.0,0.0,85,0.00,CLR,,0.00,WeatherDisplay:10.37,2013-02-02 13:12:00,
2013-02-02 08:17:00,20.9,16.8,30.41,WNW,298,0.0,0.0,84,0.00,CLR,,0.00,WeatherDisplay:10.37,2013-02-02 13:17:00,
2013-02-02 08:22:00,21.2,16.8,30.41,WNW,298,0.0,0.0,83,0.00,CLR,,0.00,WeatherDisplay:10.37,2013-02-02 13:22:00,
2013-02-02 08:27:00,21.4,16.8,30.41,WNW,298,0.0,0.0,82,0.00,CLR,,0.00,WeatherDisplay:10.37,2013-02-02 13:27:00,
2013-02-02 08:32:00,21.7,17.1,30.41,WNW,297,0.0,0.0,82,0.00,CLR,,0.00,WeatherDisplay:10.37,2013-02-02 13:32:00,
2013-02-02 08:37:00,22.4,16.3,30.41,WNW,298,0.0,0.0,77,0.00,CLR,,0.00,WeatherDisplay:10.37,2013-02-02 13:37:00,
2013-02-02 08:42:00,23.6,13.5,30.41,WNW,297,0.1,2.3,65,0.00,CLR,,0.00,WeatherDisplay:10.37,2013-02-02 13:42:00,
2013-02-02 08:47:00,24.5,13.0,30.41,SSE,160,0.6,2.3,61,0.00,CLR,,0.00,WeatherDisplay:10.37,2013-02-02 13:47:00,
2013-02-02 08:52:00,25.2,12.1,30.41,SE,129,3.1,4.6,57,0.00,CLR,,0.00,WeatherDisplay:10.37,2013-02-02 13:52:00,
2013-02-02 08:57:00,25.3,11.4,30.41,SE,136,1.7,4.0,55,0.00,CLR,,0.00,WeatherDisplay:10.37,2013-02-02 13:57:00,
2013-02-02 09:02:00,25.3,11.4,30.41,SE,142,2.6,3.5,55,0.00,CLR,,0.00,WeatherDisplay:10.37,2013-02-02 14:02:00,
2013-02-02 09:07:00,25.4,11.9,30.41,SE,125,1.1,3.5,56,0.00,CLR,,0.00,WeatherDisplay:10.37,2013-02-02 14:07:00,
2013-02-02 09:12:00,25.5,12.0,30.41,SE,134,0.0,2.3,56,0.00,CLR,,0.00,WeatherDisplay:10.37,2013-02-02 14:12:00,
2013-02-02 09:17:00,25.9,11.9,30.41,SE,133,0.0,2.3,55,0.00,CLR,,0.00,WeatherDisplay:10.37,2013-02-02 14:17:00,
2013-02-02 09:22:00,26.4,12.0,30.40,SE,136,0.0,0.0,54,0.00,CLR,,0.00,WeatherDisplay:10.37,2013-02-02 14:22:00,
2013-02-02 09:27:00,26.8,11.5,30.41,South,191,3.1,6.9,52,0.00,CLR,,0.00,WeatherDisplay:10.37,2013-02-02 14:27:00,
2013-02-02 09:32:00,26.5,11.7,30.40,SSE,168,1.2,4.0,53,0.00,CLR,,0.00,WeatherDisplay:10.37,2013-02-02 14:32:00,
2013-02-02 09:37:00,26.3,10.6,30.40,SSW,196,2.3,8.1,51,0.00,CLR,,0.00,WeatherDisplay:10.37,2013-02-02 14:37:00,
2013-02-02 09:42:00,26.4,10.3,30.39,SSE,167,3.6,5.0,50,0.00,CLR,,0.00,WeatherDisplay:10.37,2013-02-02 14:42:00,
2013-02-02 09:47:00,26.5,11.2,30.39,SSE,162,0.0,0.0,52,0.00,CLR,,0.00,WeatherDisplay:10.37,2013-02-02 14:47:00,
2013-02-02 09:52:00,26.7,11.8,30.39,SE,143,0.3,0.0,53,0.00,CLR,,0.00,WeatherDisplay:10.37,2013-02-02 14:52:00,
2013-02-02 09:57:00,27.1,11.3,30.39,SSW,204,1.2,3.5,51,0.00,CLR,,0.00,WeatherDisplay:10.37,2013-02-02 14:57:00,
2013-02-02 10:02:00,27.6,12.2,30.39,SE,140,1.2,6.9,52,0.00,CLR,,0.00,WeatherDisplay:10.37,2013-02-02 15:02:00,
2013-02-02 10:07:00,28.3,12.0,30.39,SSE,165,2.9,5.8,50,0.00,CLR,,0.00,WeatherDisplay:10.37,2013-02-02 15:07:00,
2013-02-02 10:12:00,28.8,12.5,30.38,South,179,5.4,9.2,50,0.00,CLR,,0.00,WeatherDisplay:10.37,2013-02-02 15:12:00,
2013-02-02 10:17:00,29.2,11.0,30.38,South,181,2.5,6.9,46,0.00,CLR,,0.00,WeatherDisplay:10.37,2013-02-02 15:17:00,
2013-02-02 10:22:00,29.7,11.4,30.37,SSE,156,4.9,6.9,46,0.00,CLR,,0.00,WeatherDisplay:10.37,2013-02-02 15:22:00,
2013-02-02 10:27:00,29.7,11.4,30.37,SSW,194,5.7,9.2,46,0.00,CLR,,0.00,WeatherDisplay:10.37,2013-02-02 15:27:00,
2013-02-02 10:32:00,30.1,12.3,30.37,SSE,165,7.2,8.1,47,0.00,CLR,,0.00,WeatherDisplay:10.37,2013-02-02 15:32:00,
2013-02-02 10:37:00,30.2,10.4,30.36,SSW,205,4.0,5.8,43,0.00,CLR,,0.00,WeatherDisplay:10.37,2013-02-02 15:37:00,
2013-02-02 10:42:00,30.5,9.6,30.36,SSW,208,0.3,4.6,41,0.00,CLR,,0.00,WeatherDisplay:10.37,2013-02-02 15:42:00,
2013-02-02 10:47:00,31.0,11.6,30.36,WSW,244,0.1,3.5,44,0.00,CLR,,0.00,WeatherDisplay:10.37,2013-02-02 15:47:00,
2013-02-02 10:52:00,31.4,10.9,30.36,SSW,212,0.4,1.1,42,0.00,CLR,,0.00,WeatherDisplay:10.37,2013-02-02 15:52:00,
2013-02-02 10:57:00,31.9,11.4,30.36,South,179,3.8,4.6,42,0.00,CLR,,0.00,WeatherDisplay:10.37,2013-02-02 15:57:00,
2013-02-02 11:02:00,32.2,11.6,30.36,South,171,0.9,3.5,42,0.00,CLR,,0.00,WeatherDisplay:10.37,2013-02-02 16:02:00,
2013-02-02 11:07:00,32.4,11.3,30.35,SSE,156,1.8,5.8,41,0.00,CLR,,0.00,WeatherDisplay:10.37,2013-02-02 16:07:00,
2013-02-02 11:12:00,31.9,10.3,30.34,South,184,4.3,5.8,40,0.00,CLR,,0.00,WeatherDisplay:10.37,2013-02-02 16:12:00,
2013-02-02 11:17:00,32.4,11.8,30.34,South,188,3.0,3.5,42,0.00,CLR,,0.00,WeatherDisplay:10.37,2013-02-02 16:17:00,
2013-02-02 11:22:00,32.9,12.3,30.34,SE,133,0.9,6.9,42,0.00,CLR,,0.00,WeatherDisplay:10.37,2013-02-02 16:22:00,
2013-02-02 11:27:00,33.3,11.5,30.34,SSW,212,1.7,8.1,40,0.00,CLR,,0.00,WeatherDisplay:10.37,2013-02-02 16:27:00,
2013-02-02 11:32:00,33.2,11.5,30.34,SW,221,3.7,6.9,40,0.00,CLR,,0.00,WeatherDisplay:10.37,2013-02-02 16:32:00,
2013-02-02 11:37:00,33.0,10.7,30.35,SSW,201,0.9,5.8,39,0.00,CLR,,0.00,WeatherDisplay:10.37,2013-02-02 16:37:00,
2013-02-02 11:42:00,32.8,9.9,30.34,SSE,158,0.0,0.0,38,0.00,CLR,,0.00,WeatherDisplay:10.37,2013-02-02 16:42:00,
2013-02-02 11:48:00,32.9,11.2,30.34,SSW,204,1.3,4.6,40,0.00,CLR,,0.00,WeatherDisplay:10.37,2013-02-02 16:48:00,
2013-02-02 11:53:00,33.1,10.8,30.33,SSE,154,2.6,3.5,39,0.00,CLR,,0.00,WeatherDisplay:10.37,2013-02-02 16:53:00,
2013-02-02 11:58:00,33.0,11.3,30.33,SSE,168,0.0,4.6,40,0.00,CLR,,0.00,WeatherDisplay:10.37,2013-02-02 16:58:00,
2013-02-02 12:03:00,33.4,12.7,30.31,SSE,150,1.4,5.0,42,0.00,CLR,,0.00,WeatherDisplay:10.37,2013-02-02 17:03:00,
2013-02-02 12:08:00,34.1,11.7,30.31,South,177,0.6,4.6,39,0.00,CLR,,0.00,WeatherDisplay:10.37,2013-02-02 17:08:00,
2013-02-02 12:13:00,34.4,11.4,30.31,SSE,167,1.4,4.6,38,0.00,CLR,,0.00,WeatherDisplay:10.37,2013-02-02 17:13:00,
2013-02-02 12:18:00,35.2,12.1,30.31,SSW,208,3.2,8.1,38,0.00,CLR,,0.00,WeatherDisplay:10.37,2013-02-02 17:18:00,
2013-02-02 12:23:00,35.6,11.9,30.31,SSE,162,4.6,6.9,37,0.00,CLR,,0.00,WeatherDisplay:10.37,2013-02-02 17:23:00,
2013-02-02 12:28:00,35.9,12.7,30.30,SSW,204,0.0,0.0,38,0.00,CLR,,0.00,WeatherDisplay:10.37,2013-02-02 17:28:00,
2013-02-02 12:33:00,36.2,11.1,30.30,SSW,206,0.0,0.0,35,0.00,CLR,,0.00,WeatherDisplay:10.37,2013-02-02 17:33:00,
2013-02-02 12:38:00,36.6,11.5,30.29,SSE,152,4.5,6.9,35,0.00,CLR,,0.00,WeatherDisplay:10.37,2013-02-02 17:38:00,
2013-02-02 12:43:00,36.6,13.9,30.29,SSE,152,0.6,4.6,39,0.00,CLR,,0.00,WeatherDisplay:10.37,2013-02-02 17:43:00,
2013-02-02 12:48:00,37.1,12.6,30.29,South,188,1.7,4.6,36,0.00,CLR,,0.00,WeatherDisplay:10.37,2013-02-02 17:48:00,
2013-02-02 12:53:00,37.4,12.2,30.29,SW,226,1.1,3.5,35,0.00,CLR,,0.00,WeatherDisplay:10.37,2013-02-02 17:53:00,
2013-02-02 12:58:00,37.6,13.0,30.28,SW,231,0.0,0.0,36,0.00,CLR,,0.00,WeatherDisplay:10.37,2013-02-02 17:58:00,
2013-02-02 13:03:00,37.7,13.1,30.28,South,172,2.3,9.2,36,0.00,CLR,,0.00,WeatherDisplay:10.37,2013-02-02 18:03:00,
2013-02-02 13:08:00,37.6,14.2,30.27,South,175,3.6,6.9,38,0.00,CLR,,0.00,WeatherDisplay:10.37,2013-02-02 18:08:00,
2013-02-02 13:13:00,37.7,13.7,30.26,South,172,7.1,10.4,37,0.00,CLR,,0.00,WeatherDisplay:10.37,2013-02-02 18:13:00,
2013-02-02 13:18:00,37.5,13.6,30.25,SE,142,3.8,5.8,37,0.00,CLR,,0.00,WeatherDisplay:10.37,2013-02-02 18:18:00,
2013-02-02 13:23:00,37.8,14.4,30.25,South,172,4.0,11.5,38,0.00,CLR,,0.00,WeatherDisplay:10.37,2013-02-02 18:23:00,
2013-02-02 13:28:00,38.2,14.2,30.25,SSE,158,6.7,10.4,37,0.00,CLR,,0.00,WeatherDisplay:10.37,2013-02-02 18:28:00,
2013-02-02 13:33:00,38.2,13.6,30.25,SSE,152,3.7,5.8,36,0.00,CLR,,0.00,WeatherDisplay:10.37,2013-02-02 18:33:00,
2013-02-02 13:38:00,38.4,14.4,30.24,SE,144,0.0,0.0,37,0.00,CLR,,0.00,WeatherDisplay:10.37,2013-02-02 18:38:00,
2013-02-02 13:43:00,38.7,15.2,30.23,SE,135,2.2,4.6,38,0.00,CLR,,0.00,WeatherDisplay:10.37,2013-02-02 18:43:00,
2013-02-02 13:48:00,38.9,14.2,30.23,SSE,160,4.3,6.9,36,0.00,CLR,,0.00,WeatherDisplay:10.37,2013-02-02 18:48:00,
2013-02-02 13:53:00,38.8,14.7,30.23,South,177,1.6,4.6,37,0.00,CLR,,0.00,WeatherDisplay:10.37,2013-02-02 18:53:00,
2013-02-02 13:58:00,38.8,15.9,30.22,WSW,248,0.8,3.5,39,0.00,CLR,,0.00,WeatherDisplay:10.37,2013-02-02 18:58:00,
2013-02-02 14:03:00,38.9,16.0,30.22,South,178,0.4,3.5,39,0.00,CLR,,0.00,WeatherDisplay:10.37,2013-02-02 19:03:00,
2013-02-02 14:08:00,39.1,17.9,30.22,South,188,2.5,4.6,42,0.00,CLR,,0.00,WeatherDisplay:10.37,2013-02-02 19:08:00,
2013-02-02 14:13:00,39.1,17.9,30.22,SSW,209,4.3,8.1,42,0.00,CLR,,0.00,WeatherDisplay:10.37,2013-02-02 19:13:00,
2013-02-02 14:18:00,38.9,18.8,30.22,SSE,154,1.1,3.5,44,0.00,CLR,,0.00,WeatherDisplay:10.37,2013-02-02 19:18:00,
2013-02-02 14:23:00,38.8,19.2,30.21,SW,214,2.6,5.0,45,0.00,CLR,,0.00,WeatherDisplay:10.37,2013-02-02 19:23:00,
2013-02-02 14:28:00,38.7,18.6,30.21,SSW,206,1.4,5.8,44,0.00,CLR,,0.00,WeatherDisplay:10.37,2013-02-02 19:28:00,
2013-02-02 14:33:00,38.7,18.1,30.20,SSE,151,2.4,4.6,43,0.00,CLR,,0.00,WeatherDisplay:10.37,2013-02-02 19:33:00,
2013-02-02 14:38:00,38.5,17.4,30.20,SSE,149,0.7,2.3,42,0.00,CLR,,0.00,WeatherDisplay:10.37,2013-02-02 19:38:00,
2013-02-02 14:43:00,38.2,17.1,30.20,SSE,154,1.9,6.9,42,0.00,CLR,,0.00,WeatherDisplay:10.37,2013-02-02 19:43:00,
2013-02-02 14:48:00,38.1,17.5,30.20,ESE,120,0.0,0.0,43,0.00,CLR,,0.00,WeatherDisplay:10.37,2013-02-02 19:48:00,
2013-02-02 14:53:00,38.2,17.1,30.20,SE,140,0.0,0.0,42,0.00,CLR,,0.00,WeatherDisplay:10.37,2013-02-02 19:53:00,
2013-02-02 14:58:00,38.2,17.6,30.20,SSW,205,3.7,6.9,43,0.00,CLR,,0.00,WeatherDisplay:10.37,2013-02-02 19:58:00,
2013-02-02 15:03:00,38.3,17.7,30.19,SSW,198,1.2,4.6,43,0.00,CLR,,0.00,WeatherDisplay:10.37,2013-02-02 20:03:00,
2013-02-02 15:08:00,38.3,18.3,30.19,ESE,123,0.5,4.0,44,0.00,CLR,,0.00,WeatherDisplay:10.37,2013-02-02 20:08:00,
2013-02-02 15:13:00,38.4,17.3,30.19,SSE,164,4.5,6.9,42,0.00,CLR,,0.00,WeatherDisplay:10.37,2013-02-02 20:13:00,
2013-02-02 15:18:00,38.3,17.7,30.19,SE,138,2.2,4.0,43,0.00,CLR,,0.00,WeatherDisplay:10.37,2013-02-02 20:18:00,
2013-02-02 15:23:00,38.4,18.4,30.19,SSE,162,0.1,4.6,44,0.00,CLR,,0.00,WeatherDisplay:10.37,2013-02-02 20:23:00,
2013-02-02 15:28:00,38.4,19.4,30.18,SSE,156,3.2,7.0,46,0.00,CLR,,0.00,WeatherDisplay:10.37,2013-02-02 20:28:00,
2013-02-02 15:33:00,38.6,19.6,30.18,SSE,163,2.6,9.2,46,0.00,CLR,,0.00,WeatherDisplay:10.37,2013-02-02 20:33:00,
2013-02-02 15:38:00,38.7,19.7,30.17,SSE,157,4.7,9.2,46,0.00,CLR,,0.00,WeatherDisplay:10.37,2013-02-02 20:38:00,
2013-02-02 15:43:00,38.6,21.1,30.17,SSW,211,5.9,12.7,49,0.00,CLR,,0.00,WeatherDisplay:10.37,2013-02-02 20:43:00,
2013-02-02 15:48:00,38.5,22.4,30.17,South,170,1.9,5.8,52,0.00,CLR,,0.00,WeatherDisplay:10.37,2013-02-02 20:48:00,
2013-02-02 15:53:00,38.5,22.4,30.17,SW,235,3.8,6.9,52,0.00,CLR,,0.00,WeatherDisplay:10.37,2013-02-02 20:53:00,
2013-02-02 15:58:00,38.4,22.7,30.17,SSW,192,4.7,8.1,53,0.00,CLR,,0.00,WeatherDisplay:10.37,2013-02-02 20:58:00,
2013-02-02 16:03:00,38.3,23.5,30.17,South,186,4.4,10.4,55,0.00,CLR,,0.00,WeatherDisplay:10.37,2013-02-02 21:03:00,
2013-02-02 16:08:00,38.3,24.0,30.17,SW,217,0.0,2.3,56,0.00,CLR,,0.00,WeatherDisplay:10.37,2013-02-02 21:08:00,
2013-02-02 16:13:00,38.3,23.5,30.16,WSW,240,1.0,5.0,55,0.00,CLR,,0.00,WeatherDisplay:10.37,2013-02-02 21:13:00,
2013-02-02 16:18:00,38.4,23.6,30.16,South,173,0.3,4.0,55,0.00,CLR,,0.00,WeatherDisplay:10.37,2013-02-02 21:18:00,
2013-02-02 16:23:00,38.6,23.8,30.16,South,175,1.5,3.5,55,0.00,CLR,,0.00,WeatherDisplay:10.37,2013-02-02 21:23:00,
2013-02-02 16:28:00,38.8,24.9,30.16,SSW,198,3.5,5.8,57,0.00,CLR,,0.00,WeatherDisplay:10.37,2013-02-02 21:28:00,
2013-02-02 16:33:00,38.8,25.3,30.16,SW,219,2.4,3.5,58,0.00,CLR,,0.00,WeatherDisplay:10.37,2013-02-02 21:33:00,
2013-02-02 16:38:00,38.9,28.1,30.16,SW,233,4.8,7.0,65,0.00,CLR,,0.00,WeatherDisplay:10.37,2013-02-02 21:38:00,
2013-02-02 16:43:00,38.8,29.5,30.16,West,271,5.2,10.0,69,0.00,CLR,,0.00,WeatherDisplay:10.37,2013-02-02 21:43:00,
2013-02-02 16:48:00,38.5,29.9,30.16,SW,231,6.4,9.2,71,0.00,CLR,,0.00,WeatherDisplay:10.37,2013-02-02 21:48:00,
2013-02-02 16:53:00,38.2,29.3,30.16,South,182,4.2,5.8,70,0.00,CLR,,0.00,WeatherDisplay:10.37,2013-02-02 21:53:00,
2013-02-02 16:58:00,37.8,28.2,30.16,South,174,6.1,9.0,68,0.00,CLR,,0.00,WeatherDisplay:10.37,2013-02-02 21:58:00,
2013-02-02 17:03:00,37.1,27.2,30.16,SSW,209,4.9,9.2,67,0.00,CLR,,0.00,WeatherDisplay:10.37,2013-02-02 22:03:00,
2013-02-02 17:08:00,36.7,26.8,30.16,SSW,198,3.3,5.8,67,0.00,CLR,,0.00,WeatherDisplay:10.37,2013-02-02 22:08:00,
2013-02-02 17:13:00,36.5,27.3,30.15,SSW,196,0.6,4.0,69,0.00,CLR,,0.00,WeatherDisplay:10.37,2013-02-02 22:13:00,
2013-02-02 17:18:00,36.2,27.4,30.14,SSW,212,2.8,6.0,70,0.00,CLR,,0.00,WeatherDisplay:10.37,2013-02-02 22:18:00,
2013-02-02 17:23:00,36.0,27.8,30.15,SSW,192,0.0,3.5,72,0.00,CLR,,0.00,WeatherDisplay:10.37,2013-02-02 22:23:00,
2013-02-02 17:28:00,35.7,28.2,30.15,SW,236,2.7,6.9,74,0.00,CLR,,0.00,WeatherDisplay:10.37,2013-02-02 22:28:00,
2013-02-02 17:33:00,35.5,29.0,30.15,SSW,206,5.2,6.9,77,0.00,CLR,,0.00,WeatherDisplay:10.37,2013-02-02 22:33:00,
2013-02-02 17:38:00,35.3,29.4,30.15,SSW,204,2.6,5.0,79,0.00,CLR,,0.00,WeatherDisplay:10.37,2013-02-02 22:38:00,
2013-02-02 17:43:00,35.2,30.0,30.14,South,189,4.1,6.0,81,0.00,CLR,,0.00,WeatherDisplay:10.37,2013-02-02 22:43:00,
2013-02-02 17:48:00,35.1,30.2,30.14,SSW,198,0.0,1.1,82,0.00,CLR,,0.00,WeatherDisplay:10.37,2013-02-02 22:48:00,
2013-02-02 17:53:00,35.1,30.8,30.14,SSW,207,0.9,4.6,84,0.00,CLR,,0.00,WeatherDisplay:10.37,2013-02-02 22:53:00,
2013-02-02 17:58:00,35.1,30.8,30.14,SSW,200,1.6,5.8,84,0.00,CLR,,0.00,WeatherDisplay:10.37,2013-02-02 22:58:00,
2013-02-02 18:03:00,35.1,31.0,30.14,SSW,197,0.3,3.5,85,0.00,,,0.00,WeatherDisplay:10.37,2013-02-02 23:03:00,
2013-02-02 18:08:00,35.1,31.0,30.14,SSW,197,0.0,2.3,85,0.00,,,0.00,WeatherDisplay:10.37,2013-02-02 23:08:00,
2013-02-02 18:13:00,35.2,31.4,30.13,South,190,0.0,0.0,86,0.00,,,0.00,WeatherDisplay:10.37,2013-02-02 23:13:00,
2013-02-02 18:18:00,35.2,31.4,30.13,South,190,0.0,0.0,86,0.00,,,0.00,WeatherDisplay:10.37,2013-02-02 23:18:00,
2013-02-02 18:23:00,35.2,31.4,30.13,SW,215,1.6,3.0,86,0.00,,,0.00,WeatherDisplay:10.37,2013-02-02 23:23:00,
2013-02-02 18:28:00,35.2,31.4,30.14,SSW,210,2.1,4.0,86,0.00,,,0.00,WeatherDisplay:10.37,2013-02-02 23:28:00,
2013-02-02 18:33:00,35.1,31.3,30.14,SSW,206,0.5,3.5,86,0.00,,,0.00,WeatherDisplay:10.37,2013-02-02 23:33:00,
2013-02-02 18:39:00,35.1,31.6,30.14,SSW,204,0.0,0.0,87,0.00,CLR,,0.00,WeatherDisplay:10.37,2013-02-02 23:39:00,
2013-02-02 18:44:00,35.1,31.6,30.14,SSW,205,0.0,0.0,87,0.00,,,0.00,WeatherDisplay:10.37,2013-02-02 23:44:00,
2013-02-02 18:49:00,35.1,31.6,30.14,SSW,206,0.5,1.1,87,0.00,,,0.00,WeatherDisplay:10.37,2013-02-02 23:49:00,
2013-02-02 18:54:00,35.1,31.6,30.14,SW,215,0.0,0.0,87,0.00,,,0.00,WeatherDisplay:10.37,2013-02-02 23:54:00,
2013-02-02 18:59:00,35.2,31.7,30.13,SW,215,3.6,3.6,87,0.00,,,0.00,WeatherDisplay:10.37,2013-02-02 23:59:00,
2013-02-02 19:04:00,35.2,31.7,30.13,SW,221,2.7,3.5,87,0.00,,,0.00,WeatherDisplay:10.37,2013-02-03 00:04:00,
2013-02-02 19:09:00,35.2,32.0,30.14,SW,217,0.0,0.0,88,0.00,,,0.00,WeatherDisplay:10.37,2013-02-03 00:09:00,
2013-02-02 19:14:00,35.3,32.1,30.14,SW,217,0.0,0.0,88,0.00,,,0.00,WeatherDisplay:10.37,2013-02-03 00:14:00,
2013-02-02 19:19:00,35.2,32.0,30.14,SW,217,0.0,0.0,88,0.00,,,0.00,WeatherDisplay:10.37,2013-02-03 00:19:00,
2013-02-02 19:24:00,35.3,32.1,30.14,WSW,252,0.0,0.0,88,0.00,,,0.00,WeatherDisplay:10.37,2013-02-03 00:24:00,
2013-02-02 19:29:00,35.3,32.1,30.14,SW,233,0.6,4.6,88,0.00,,,0.00,WeatherDisplay:10.37,2013-02-03 00:29:00,
2013-02-02 19:34:00,35.3,32.1,30.14,SW,234,1.1,3.5,88,0.00,,,0.00,WeatherDisplay:10.37,2013-02-03 00:34:00,
2013-02-02 19:39:00,35.4,32.2,30.14,SSW,209,3.7,4.6,88,0.00,,,0.00,WeatherDisplay:10.37,2013-02-03 00:39:00,
2013-02-02 19:45:00,35.5,32.3,30.14,SW,224,3.4,3.5,88,0.00,,,0.00,WeatherDisplay:10.37,2013-02-03 00:45:00,
2013-02-02 19:50:00,35.5,32.3,30.14,SW,233,1.9,3.5,88,0.00,,,0.00,WeatherDisplay:10.37,2013-02-03 00:50:00,
2013-02-02 19:55:00,35.5,32.3,30.13,SW,228,0.9,4.6,88,0.00,,,0.00,WeatherDisplay:10.37,2013-02-03 00:55:00,
2013-02-02 20:00:00,35.4,32.2,30.14,SW,224,3.8,6.9,88,0.00,,,0.00,WeatherDisplay:10.37,2013-02-03 01:00:00,
2013-02-02 20:05:00,35.4,32.5,30.13,SW,231,4.4,5.8,89,0.00,,,0.00,WeatherDisplay:10.37,2013-02-03 01:05:00,
2013-02-02 20:10:00,35.4,32.5,30.13,SW,235,3.7,4.6,89,0.00,,,0.00,WeatherDisplay:10.37,2013-02-03 01:10:00,
2013-02-02 20:15:00,35.4,32.5,30.13,SW,229,2.1,3.5,89,0.00,,,0.00,WeatherDisplay:10.37,2013-02-03 01:15:00,
2013-02-02 20:20:00,35.3,32.4,30.13,WSW,239,6.2,6.9,89,0.00,,,0.00,WeatherDisplay:10.37,2013-02-03 01:20:00,
2013-02-02 20:25:00,35.3,32.4,30.12,SW,229,3.4,12.7,89,0.00,,,0.00,WeatherDisplay:10.37,2013-02-03 01:25:00,
2013-02-02 20:30:00,35.3,32.4,30.13,WSW,240,6.3,9.2,89,0.00,,,0.00,WeatherDisplay:10.37,2013-02-03 01:30:00,
2013-02-02 20:35:00,35.3,32.4,30.13,WSW,244,6.5,13.8,89,0.00,,,0.00,WeatherDisplay:10.37,2013-02-03 01:35:00,
2013-02-02 20:40:00,35.5,32.6,30.14,West,267,5.5,8.0,89,0.00,,,0.00,WeatherDisplay:10.37,2013-02-03 01:40:00,
2013-02-02 20:45:00,35.6,32.7,30.13,SW,219,1.9,3.5,89,0.00,,,0.00,WeatherDisplay:10.37,2013-02-03 01:45:00,
2013-02-02 20:50:00,35.6,32.7,30.13,SW,229,4.2,5.8,89,0.00,,,0.00,WeatherDisplay:10.37,2013-02-03 01:50:00,
2013-02-02 20:55:00,35.7,32.5,30.14,WSW,252,6.0,11.5,88,0.00,,,0.00,WeatherDisplay:10.37,2013-02-03 01:55:00,
2013-02-02 21:00:00,35.8,32.6,30.14,West,261,5.9,9.2,88,0.00,,,0.00,WeatherDisplay:10.37,2013-02-03 02:00:00,
2013-02-02 21:05:00,35.9,32.7,30.14,West,265,4.0,6.0,88,0.00,,,0.00,WeatherDisplay:10.37,2013-02-03 02:05:00,
2013-02-02 21:10:00,35.9,32.7,30.14,WSW,247,6.1,8.1,88,0.00,,,0.00,WeatherDisplay:10.37,2013-02-03 02:10:00,
2013-02-02 21:15:00,35.9,32.7,30.13,WSW,244,4.7,6.9,88,0.00,,,0.00,WeatherDisplay:10.37,2013-02-03 02:15:00,
2013-02-02 21:20:00,35.9,32.7,30.13,WSW,247,0.3,2.3,88,0.00,,,0.00,WeatherDisplay:10.37,2013-02-03 02:20:00,
2013-02-02 21:25:00,35.9,32.7,30.13,WSW,239,2.4,3.5,88,0.00,,,0.00,WeatherDisplay:10.37,2013-02-03 02:25:00,
2013-02-02 21:30:00,35.9,32.7,30.13,WSW,243,1.7,3.5,88,0.00,,,0.00,WeatherDisplay:10.37,2013-02-03 02:30:00,
2013-02-02 21:35:00,36.0,32.8,30.13,WSW,247,0.8,3.5,88,0.00,,,0.00,WeatherDisplay:10.37,2013-02-03 02:35:00,
2013-02-02 21:40:00,36.0,32.8,30.13,WSW,250,3.9,5.8,88,0.00,,,0.00,WeatherDisplay:10.37,2013-02-03 02:40:00,
2013-02-02 21:45:00,36.2,32.7,30.13,WSW,239,3.5,5.0,87,0.00,,,0.00,WeatherDisplay:10.37,2013-02-03 02:45:00,
2013-02-02 21:50:00,36.3,32.8,30.13,WSW,246,2.8,5.8,87,0.00,,,0.00,WeatherDisplay:10.37,2013-02-03 02:50:00,
2013-02-02 21:55:00,36.2,32.7,30.13,WSW,256,0.3,4.0,87,0.00,,,0.00,WeatherDisplay:10.37,2013-02-03 02:55:00,
2013-02-02 22:00:00,36.1,32.6,30.13,WSW,254,2.0,3.5,87,0.00,,,0.00,WeatherDisplay:10.37,2013-02-03 03:00:00,
2013-02-02 22:05:00,35.9,33.8,30.12,WSW,255,0.4,3.5,92,0.00,,,0.00,WeatherDisplay:10.37,2013-02-03 03:05:00,
2013-02-02 22:10:00,35.8,32.3,30.11,WSW,255,0.0,0.0,87,0.00,,,0.00,WeatherDisplay:10.37,2013-02-03 03:10:00,
2013-02-02 22:15:00,35.6,32.1,30.11,WSW,255,0.1,1.1,87,0.00,,,0.00,WeatherDisplay:10.37,2013-02-03 03:15:00,
2013-02-02 22:20:00,35.5,32.0,30.11,WSW,255,0.0,0.0,87,0.00,,,0.00,WeatherDisplay:10.37,2013-02-03 03:20:00,
2013-02-02 22:25:00,35.2,31.7,30.11,WSW,255,0.0,0.0,87,0.00,,,0.00,WeatherDisplay:10.37,2013-02-03 03:25:00,
2013-02-02 22:30:00,35.0,31.5,30.11,WSW,255,0.0,0.0,87,0.00,,,0.00,WeatherDisplay:10.37,2013-02-03 03:30:00,
2013-02-02 22:35:00,34.6,31.1,30.10,WSW,255,0.0,0.0,87,0.00,,,0.00,WeatherDisplay:10.37,2013-02-03 03:35:00,
2013-02-02 22:40:00,34.4,31.2,30.11,WSW,255,0.0,0.0,88,0.00,,,0.00,WeatherDisplay:10.37,2013-02-03 03:40:00,
2013-02-02 22:45:00,34.3,31.1,30.10,WSW,255,0.0,0.0,88,0.00,,,0.00,WeatherDisplay:10.37,2013-02-03 03:45:00,
2013-02-02 22:50:00,34.3,31.4,30.11,WSW,255,0.0,0.0,89,0.00,,,0.00,WeatherDisplay:10.37,2013-02-03 03:50:00,
2013-02-02 22:55:00,34.2,31.3,30.11,WSW,255,0.0,0.0,89,0.00,,,0.00,WeatherDisplay:10.37,2013-02-03 03:55:00,
2013-02-02 23:00:00,34.3,31.4,30.11,WSW,255,0.2,0.0,89,0.00,,,0.00,WeatherDisplay:10.37,2013-02-03 04:00:00,
2013-02-02 23:05:00,34.3,31.4,30.11,WNW,296,2.6,4.6,89,0.00,,,0.00,WeatherDisplay:10.37,2013-02-03 04:05:00,
2013-02-02 23:10:00,34.4,31.8,30.10,WNW,300,0.1,2.3,90,0.00,,,0.00,WeatherDisplay:10.37,2013-02-03 04:10:00,
2013-02-02 23:15:00,34.4,31.8,30.10,WNW,300,0.0,1.1,90,0.00,,,0.00,WeatherDisplay:10.37,2013-02-03 04:15:00,
2013-02-02 23:20:00,34.3,31.7,30.09,NNW,333,0.1,0.0,90,0.00,,,0.00,WeatherDisplay:10.37,2013-02-03 04:20:00,
2013-02-02 23:25:00,34.3,31.7,30.09,NW,322,2.0,4.0,90,0.00,,,0.00,WeatherDisplay:10.37,2013-02-03 04:25:00,
2013-02-02 23:30:00,34.3,31.7,30.09,NW,316,3.6,4.6,90,0.00,,,0.00,WeatherDisplay:10.37,2013-02-03 04:30:00,
2013-02-02 23:35:00,34.3,31.7,30.10,NW,313,3.9,4.6,90,0.00,,,0.00,WeatherDisplay:10.37,2013-02-03 04:35:00,
2013-02-02 23:40:00,34.4,31.8,30.09,NW,310,2.2,3.5,90,0.00,,,0.00,WeatherDisplay:10.37,2013-02-03 04:40:00,
2013-02-02 23:45:00,34.4,31.8,30.08,NW,309,1.6,3.5,90,0.00,,,0.00,WeatherDisplay:10.37,2013-02-03 04:45:00,
2013-02-02 23:50:00,34.4,31.8,30.08,NW,308,0.1,2.3,90,0.00,,,0.00,WeatherDisplay:10.37,2013-02-03 04:50:00,
2013-02-02 23:55:00,34.4,31.8,30.08,NW,308,0.0,0.0,90,0.00,,,0.00,WeatherDisplay:10.37,2013-02-03 04:55:00,